Weather in Krasnozatonsky

Russia / Komi Republic     61°40′41″N   50°59′17″E
temp.,
°C
wind,
m/s
gust,
m/s
humid.,
%
clouds,
%
prec.,
mm/h
press.,
hPa
HPBL,
m
7 may, fri
fri700:00+4se2669100 0.0 1009172
03:00+5se3886100 0.6 1008258
06:00+6se389596 0.1 1007252
09:00+13ssw497489 0.1 1007752
12:00+17sw5105697 0.1 10071727
15:00+14sw3669100 0.8 1008689
18:00+13sse2378100 0.5 100781
21:00+11sse3790100 3.1 1007207
8 may, sat
sat800:00+10sw4990100 0.2 1008666
03:00+6wsw3109140 1.4 1012827
06:00+7sw49830 0.0 1013579
09:00+11wsw47595 0.0 10161210
12:00+14wsw344356 0.0 10171632
15:00+15ssw23365 0.0 10171943
18:00+14sse24445 0.0 1016441
21:00+9ese2563100 0.0 101680
9 may, sun
sun900:00+7ese397099 0.0 1015187
03:00+8se41470100 0.0 1014376
06:00+10se51376100 0.0 1013469
09:00+14se51266100 0.0 1012892
12:00+18sse61552100 0.0 10102055
15:00+19s61449100 0.2 10102481
18:00+15s61565100 0.2 10111412
21:00+14sse31270100 0.2 1012757
10 may, mon
mon1000:00+13s51283100 0.8 1012926
03:00+11w3794100 4.6 1013564
06:00+8wnw4993100 5.1 1016570
09:00+5nw4895100 8.8 1020690
12:00+9nw475891 0.4 10231372
15:00+12nw473691 0.4 10232358
18:00+12wnw36425 0.0 1025763
21:00+7w23635 0.0 102756
11 may, tue
tue1100:00+5w22690 0.0 102831
03:00+4sw23715 0.0 102942
06:00+8ssw365977 0.0 1029240
09:00+11ssw4954100 0.0 1028657
12:00+11sw4869100 0.0 1027739
15:00+11sw4978100 0.3 1026640
18:00+11ssw41495100 2.6 1024554
21:00+11sw2697100 3.2 1024149